Regional Weather Roundup
Issued by NWS

Home | Current Version | Previous Version | Graphics & Text | Print | Product List | Glossary On
Versions: 1 2 3 4 5 6 7 8 9 10 11 12 13 14 15 16 17 18 19 20 21 22 23 24 25 26 27 28 29 30 31 32 33 34 35 36 37 38 39 40 41 42 43 44 45 46 47 48 49 50
000
ASUS43 KLMK 261510
RWRKY
KENTUCKY REGIONAL WEATHER ROUNDUP
NATIONAL WEATHER SERVICE LOUISVILLE KY
1000 AM EST THU FEB 26 2015

NOTE "FAIR" INDICATES FEW OR NO CLOUDS BELOW 12,000 FEET
WITH NO SIGNIFICANT WEATHER AND/OR OBSTRUCTIONS TO VISIBILITY.

KYZ001>023-026-027-061>063-070>075-261600-
WESTERN AND SOUTH CENTRAL KENTUCKY

CITY           SKY/WX    TMP DP  RH WIND       PRES   REMARKS
PADUCAH        CLOUDY    29  22  75 N9        30.06R WCI  20
HENDERSON      CLOUDY    28  19  69 N8        30.06R WCI  20
OWENSBORO      PTSUNNY   29  18  63 NE9       30.05R WCI  21
HOPKINSVILLE   PTSUNNY   28  22  78 NW5       30.02R WCI  23
BOWLING GREEN  MOSUNNY   33  20  58 VRB3      30.01R
GLASGOW        SUNNY     32  20  63 N3        30.00R
$$

KYZ024-025-028>034-038-045-046-053-261600-
NORTH CENTRAL KENTUCKY

CITY           SKY/WX    TMP DP  RH WIND       PRES   REMARKS
LOUISVILLE/SDF CLOUDY    28  16  60 N10       30.03R WCI  19
LOUISVILLE/LOU CLOUDY    27  14  58 N10       30.02R WCI  17
FORT KNOX      CLOUDY    27  17  65 N6        30.00R WCI  20
$$

KYZ035>037-039>044-047>052-055>060-089>105-261600-
NORTHEAST KENTUCKY

CITY           SKY/WX    TMP DP  RH WIND       PRES   REMARKS
LEXINGTON      SUNNY     24  14  65 N10       29.97R WCI  14
COVINGTON      CLOUDY    20   9  62 N10       30.00R WCI   9
FRANKFORT      MOSUNNY   26  13  57 N8        29.98R WCI  18
$$

KYZ054-064>069-076>088-106>120-261600-
SOUTHEAST KENTUCKY

CITY           SKY/WX    TMP DP  RH WIND       PRES   REMARKS
JACKSON        CLOUDY    30  19  63 VRB3      29.89R
LONDON         CLOUDY    32  24  72 N8        29.92R WCI  25
SOMERSET       CLOUDY    30  25  80 NW8       29.97R WCI  23
MIDDLESBORO    CLOUDY    32  28  86 CALM      29.92R
MONTICELLO     CLOUDY    33  27  79 NW7       29.98R WCI  27
$$




USA.gov is the U.S. government's official web portal to all federal, state and local government web resources and services.